Starlink 4386

operational
NORAD ID: 53649 Int'l Des: 2022-105 Owner: SPXS Country: US Constellation: starlink
LEOCIRCULARRETROGRADESSO

Starlink 4386について

説明を読み込み中...

リアルタイム位置

3D地球を読み込み中...

次回通過

高度履歴

Altitude vs Time

uPlot chart will show altitude changes over time

軌道要素

1 53649U 22105B 25354.16035172 .00001362 00000-0 98629-4 0 9991
2 53649 97.6026 232.8832 0001982 83.2555 276.8897 15.05645838181333
Epoch: Dec 20, 2025 • Age: 5 hours

現在のステータス

高度 557.1 km
速度 7.59 km/s
衛星直下点 53.56°N, 0.44°E
打ち上げ日 Aug 31, 2022
運用期間 3.3 years
タイプ internet

技術仕様

分類 Payload
質量 300.00 kg
乾燥質量 290.00 kg
総質量 300.00 kg
長さ 0.20 m
直径 2.80 m
スパン 9.00 m
形状 Box + pan
製造者 SPXS
バスタイプ Starlink
フェーズステータス In Orbit
所有者/国 SPXS/US

大規模コンステレーション

Loading constellations...